Location: Ostrava
(49.8330°N, 18.2830°E)
Time: 03:04:28
(UTC+02:00)

Iridium 39 - Visible Passes

Search period start: 26 July 2014 00:00
Search period end: 05 August 2014 00:00
Orbit: 776 x 779 km, 86.4° (Epoch: 25 July)

Date Brightness Start Highest point End Pass type
(mag) Time Alt. Az. Time Alt. Az. Time Alt. Az.
26 Jul 8.6 01:08:15 10° WNW 01:08:37 10° WNW 01:08:59 10° WNW visible
26 Jul 6.0 22:50:12 10° N 22:55:26 74° E 22:58:24 26° SSE visible
27 Jul 8.2 00:32:11 10° NW 00:35:32 18° WNW 00:38:52 10° WSW visible
27 Jul 6.6 22:16:48 10° N 22:21:47 43° E 22:25:01 20° SE visible
27 Jul 7.5 23:57:53 10° NNW 00:02:19 29° W 00:05:29 16° SW visible
28 Jul 7.3 21:43:38 10° NNE 21:48:00 26° ENE 21:51:39 13° SE visible
28 Jul 6.7 23:23:59 10° NNW 23:28:59 48° W 23:32:07 22° SSW visible
29 Jul 7.8 21:10:52 10° NNE 21:14:06 16° ENE 21:17:19 10° ESE visible
29 Jul 6.0 22:50:18 10° N 22:55:32 82° W 22:58:45 24° S visible
30 Jul 8.5 00:33:10 10° NW 00:35:22 13° WNW 00:37:34 10° W visible
30 Jul 6.2 22:16:47 10° N 22:21:58 60° E 22:25:24 21° SSE visible
30 Jul 8.0 23:58:22 10° NNW 00:02:14 21° WNW 00:05:52 11° SW visible
31 Jul 6.8 21:43:28 10° N 21:48:16 35° ENE 21:52:03 15° SE visible
31 Jul 7.3 23:24:16 10° NNW 23:28:58 35° W 23:32:31 16° SW visible
01 Aug 7.5 21:10:25 10° NNE 21:14:26 22° ENE 21:18:25 10° ESE visible
01 Aug 6.4 22:50:27 10° N 22:55:35 60° W 22:59:11 20° SSW visible
02 Aug 6.0 22:16:50 10° N 22:22:05 82° E 22:25:51 19° S visible
02 Aug 8.4 23:59:04 10° NW 00:02:06 16° WNW 00:05:07 10° WSW visible
03 Aug 6.4 21:43:24 10° N 21:48:28 48° E 21:52:32 15° SSE visible
03 Aug 7.8 23:24:39 10° NNW 23:28:54 26° W 23:33:01 11° SW visible
04 Aug 7.1 21:10:10 10° NNE 21:14:43 29° ENE 21:19:13 10° SE visible
04 Aug 7.0 22:50:41 10° NNW 22:55:36 43° W 22:59:43 14° SSW visible
